Showing default

IRIDIUM 120, 42805

Orbit data source: Space-Track

IRIDIUM 120, 42805 is a payload satellite owned by Iridium (US) in LEO that was launched on Sun, 25 Jun 2017 UTC via an FALCON 9 launch vehicle from the Air Force Western Test Range (AFWTR). Payload-class satellites include a variety of spacecraft equipped with specific instruments for various scientific and technological missions. These include communications satellites like Starlink; space stations such as the ISS; scientific satellites like the Hubble; Earth observation satellites from companies like Planet Labs, Umbra, and HawkEye 360; GPS; miniature CubeSats for education and research; and military/defense satellites.

Loading next visibility...
Identifier
42805, 2017-039C
Orbit
LEO
Country
Flag of USUS
Related business
Manufacturer
OATK SSG Gilbert
Mission
Operational Commercial Communications
Bus & Motor
ELITEBUS, Unknown motor
Mass
860 kg wet, 700 kg dry
Launch date (UTC)
2017-06-25 (9 years ago)
Launch vehicle
FALCON 9
Launch site
Air Force Western Test Range (AFWTR)
Object type
Payload
Rocket body
Debris
Shape & HBR
Trap Box + 2 Pan, 4.8 m
Radar Cross Section
10.154 m², Large (>1 m²)

Expand to show TLE details & history
Last TLE update: 2 days ago

TLE from 2 days ago
0 IRIDIUM 120
1 42805U 17039C   26171.44337104  .00000198  00000-0  63582-4 0  9998
2 42805  86.3963 320.5991 0002060  96.6184 263.5246 14.34217694471648
Epoch: 2026-06-20T10:38Z
TLE epoch observation values (Epoch: 2026-06-20T10:38:27.257Z)
Latitude
-0.00008°
Longitude
-107.67239°
Altitude
780.885 km
Speed
7.463 km/s
True Right ascension
21h 22m 23s
True Declination
0° 00' 00"
Sunlit
Object was in full shadow at epoch
Visualization orbit readout
Latitude
Unknown
Longitude
Unknown
Altitude
Unknown
Speed
Unknown
Apparent Right ascension
Unknown
Apparent Declination
Unknown
Sunlit
N/A
Visualization observer readout
Local Sidereal Time
21:52:40
Azimuth
Unknown
Elevation
Unknown
Doppler factor
Unknown
Orbital elements
Apogee altitude
776.105 km
Perigee altitude
773.158 km
Semi-major axis
7,152.769 km
Eccentricity
0.00021
Inclination
86.3963°
RAAN
320.5991°
Arg. of periapsis
96.6184°
True anomaly
263.50115°
Mean anomaly
263.5246°
Eccentric anomaly
263.51287°
Mean motion
3.58783 °/min
Orbital period
100.34 mins
BSTAR
0.000063582
Loading maneuver chart data...
Computing Atmospheric mass density...
Loading historical data...
Loading historical data...
Loading historical data...
Loading historical data...
Loading historical data...
Loading historical data...
Loading historical data...

Documentation

Showing up to 5 results
|